Regional Weather Roundup
Issued by NWS

Home | Current Version | Previous Version | Text Only | Print | Product List | Glossary Off
Versions: 1 2 3 4 5 6 7 8 9 10 11 12 13 14 15 16 17 18 19 20 21 22 23 24 25 26 27 28 29 30 31 32 33 34 35 36 37 38 39 40 41 42 43 44 45 46 47 48 49 50

124
ASUS43 KMKX 282321
RWRWI

WISCONSIN REGIONAL WEATHER ROUNDUP
NATIONAL WEATHER SERVICE MILWAUKEE/SULLIVAN WI
600 PM CDT SUN AUG 28 2016

NOTE: "FAIR" INDICATES FEW OR NO CLOUDS BELOW 12,000 FEET WITH NO
SIGNIFICANT WEATHER AND/OR OBSTRUCTIONS TO VISIBILITY.

WIZ001-002-006>008-014>016-023>028-290000-
NORTHWEST WISCONSIN

CITY           SKY/WX    TMP DP  RH WIND       PRES   REMARKS
SUPERIOR ARPT  SUNNY     68  64  85 NE8       30.13S
ASHLAND        SUNNY     75  66  73 NE7       30.15S
HAYWARD        SUNNY     75  63  66 S7        30.16F
SIREN          MOSUNNY   78  65  66 SE7       30.13S
CUMBERLAND     SUNNY     75  64  69 S7        30.15S
RICE LAKE      SUNNY     77  65  65 SE7       30.16S
CHETEK         NOT AVBL
LADYSMITH      SUNNY     78  64  62 S5        30.18S HX  80
EAU CLAIRE     SUNNY     80  64  58 SE7       30.14S HX  82
MENOMONIE      SUNNY     78  66  66 SE8       30.14R HX  80
NEW RICHMOND   MOSUNNY   78  69  73 SE8       30.12S HX  81
OSCEOLA        SUNNY     80  74  83 SE9       30.13F HX  84
$$

WIZ003>005-009-010-017-018-290000-
NORTH CENTRAL WISCONSIN

CITY           SKY/WX    TMP DP  RH WIND       PRES   REMARKS
MANITOWISH WTR NOT AVBL
ARBOR VITAE    SUNNY     77  64  63 S3        30.20S
WOODRUFF       SUNNY     77  64  63 S3        30.20S
RHINELANDER    SUNNY     77  62  59 SW5       30.21R
EAGLE RIVER    SUNNY     75  56  51 CALM      30.20S
LAND O LAKES   SUNNY     75  59  57 CALM      30.21F
PHILLIPS       SUNNY     76  63  65 S5        30.17S
TOMAHAWK       SUNNY     75  61  61 CALM      30.20S
MEDFORD        MOSUNNY   74  65  74 CALM      30.19S
MERRILL        SUNNY     77  62  61 CALM      30.20S
$$

WIZ029-030-035-036-043>047-290000-
CENTRAL WISCONSIN

CITY           SKY/WX    TMP DP  RH WIND       PRES   REMARKS
WAUSAU         SUNNY     76  62  62 SW5       30.17S
MOSINEE        SUNNY     75  64  69 S6        30.20S
MARSHFIELD     SUNNY     78  64  61 S6        30.18S HX  80
STEVENS POINT  PTSUNNY   76  63  63 SE3       30.19S
WAUPACA        MOSUNNY   80  66  61 E8        30.18S HX  82
WAUTOMA        NOT AVBL
WISC RAPIDS    SUNNY     79  66  64 SW7       30.18F HX  81
CAMP DOUGLAS   CLOUDY    78  67  69 S6        30.16F HX  80
$$

WIZ011>013-019>022-031-037>040-048>050-290000-
NORTHEAST WISCONSIN

CITY           SKY/WX    TMP DP  RH WIND       PRES   REMARKS
ANTIGO         SUNNY     75  61  60 CALM      30.21S
SHAWANO        SUNNY     80  64  58 SE5       30.19R HX  81
OCONTO         NOT AVBL
STURGEON BAY   SUNNY     74  63  68 SE6       30.21S
GREEN BAY      SUNNY     78  66  66 CALM      30.18S HX  80
MANITOWOC      CLOUDY    72  63  73 MISG      30.21S
APPLETON       MOSUNNY   77  61  57 SE7       30.18S
CLINTONVILLE   SUNNY     77  63  61 SE6       30.18S
OSHKOSH        SUNNY     77  66  68 E6        30.18F
$$

WIZ032>034-041-042-053>061-290000-
SOUTHWEST WISCONSIN

CITY           SKY/WX    TMP DP  RH WIND       PRES   REMARKS
LA CROSSE      CLOUDY    83  70  64 E7        30.12F HX  87
SPARTA         CLOUDY    78  66  68 SE6       30.16S HX  80
VIROQUA        CLOUDY    76  69  78 E7        30.18R
BOSCOBEL       SUNNY     83  72  69 E5        30.14R HX  88
PRAIRIE DU CHI MOSUNNY   82  69  64 E3        30.13R HX  86
PLATTEVILLE    CLOUDY    83  72  69 E6        30.16R HX  87
$$

WIZ056-057-062-063-064-067-068-290000-
SOUTH CENTRAL WISCONSIN

CITY           SKY/WX    TMP DP  RH WIND       PRES   REMARKS
REEDSBURG      NOT AVBL
BARABOO/DELLS  CLOUDY    76  66  71 E6        30.19R
LONE ROCK      SUNNY     79  71  76 NE7       30.16S HX  82
MINERAL POINT  MOSUNNY   82  70  65 E5        30.17R HX  86
MADISON        MOSUNNY   80  69  69 E5        30.17S HX  83
MIDDLETON      SUNNY     80  70  70 E6        30.18R HX  83
WATERTOWN      SUNNY     80  70  70 NE3       30.17S HX  83
MONROE         MOSUNNY   79  70  73 E3        30.16S HX  81
JANESVILLE     MOSUNNY   82  70  65 SE5       30.16S HX  86
$$

WIZ051-052-058>065-066-070>072-290000-
SOUTHEAST WISCONSIN

CITY           SKY/WX    TMP DP  RH WIND       PRES   REMARKS
MILWAUKEE      MOSUNNY   74  67  78 E8        30.18F
WAUKESHA       MOSUNNY   77  66  69 E8        30.19F
MILWAUKEE/TIMM SUNNY     77  63  61 E5        30.19F
RACINE         MOSUNNY   74  67  78 NE7       30.20F
BURLINGTON     SUNNY     77  67  71 E5        30.18R
KENOSHA        SUNNY     75  68  78 E10       30.19S
FOND DU LAC    SUNNY     78  68  71 CALM      30.18F HX  80
SHEBOYGAN      SUNNY     73  64  73 VRB5      30.20S
WEST BEND      SUNNY     73  64  73 SE5       30.19S
JUNEAU         SUNNY     78  67  68 E3        30.19F HX  80
$$

LSZ147-162-290000-
LAKE SUPERIOR

STATION/POSITION TIME  TEMP    WIND        PRES    WAVE
                       AIR SEA DIR/SP/G            HT/PER
                 (UTC) (F)     (DEG/KT/KT) (MB)    (FT/S)
W MID LAKE BUOY  2250   67 69   50/  6/  8 1021.2F   0
DEVILS ISLAND    2300   66      70/ 10/ 11 1021.2F
PORT WING        2200   68      30/ 15/ 17 1020.7F
SAXON HARBOR     2240   70      40/ 11/ 12 1021.0F
$$

LMZ867-665-643>646-290000-
LAKE MICHIGAN

STATION/POSITION TIME  TEMP    WIND        PRES    WAVE
                       AIR SEA DIR/SP/G            HT/PER
                 (UTC) (F)     (DEG/KT/KT) (MB)    (FT/S)
CHAMBERS ISLAND  2200   75     170/  4/  8 1022.0R
N MID LAKE BUOY  2250   71 72  190/  8/ 10 1022.1R   1
NORTHPORT PIER   2200   72     140/  9/ 11 1022.0R
KEWAUNEE LAKESHO 2200   67                 1022.1R
SHEBOYGAN LAKESH 2300   69     180/  8/  8 1022.0F
PORT WASHINGTON  2200   74     180/  1/  4 1023.4
ATWATER BUOY     2300   69     200/  4/  4   N/A
MILWAUKEE LAKESH 2310   70     200/  2/  2   N/A
S MID LAKE BUOY  2250   73 76   40/  8/ 10 1021.7S   1
KENOSHA   LAKESH 2300   71      60/  4/  4 1021.7S
$$

TC  - TEMPERATURE IN CELSIUS
VSB - VISIBILITY IN STATUTE MILES
WCI - WIND CHILL INDEX
HX  - HEAT INDEX





USA.gov is the U.S. government's official web portal to all federal, state and local government web resources and services.